Baltimore, MD

2:17 AM EDT on May 26, 2017 (GMT -0400)
Baltimore-Washington International

Weather History for KBWI - March, 2012

Change the Weather History Date:

Sunday, March 11, 2012

  Actual Average Record
Temperature  
Mean Temperature 46 °F 42 °F  
Max Temperature 63 °F 52 °F 75 °F (1967)
Min Temperature 28 °F 32 °F 6 °F (1960)
Degree Days  
Heating Degree Days 19 23  
Month to date heating degree days 197 270  
Since 1 July heating degree days 3101 3865  
Cooling Degree Days 0 0  
Month to date cooling degree days 0 0  
Year to date cooling degree days 0 0  
Moisture  
Dew Point 27 °F    
Average Humidity 50    
Maximum Humidity 75    
Minimum Humidity 25    
Precipitation  
Precipitation 0.00 in 0.12 in 2.10 in (1936)
Month to date precipitation 0.96 1.26  
Year to date precipitation 5.92 7.21  
Snow  
Snow 0.00 in 0.00 in 6.00 in (1896)
Month to date snowfall T 1.1  
Since 1 July snowfall 1.8 19.3  
Snow Depth 0.00 in    
Sea Level Pressure  
Sea Level Pressure 30.47 in    
Wind  
Wind Speed 4 mph (SSW)    
Max Wind Speed 16 mph    
Max Gust Speed 23 mph    
Visibility 10 miles    
Events      
T = Trace of Precipitation, MM = Missing Value Source: NWS Daily Summary

Daily Weather History Graph

Daily Weather History Graph

Search for Another Location

Airport or City:

Trip Planner

Search our weather history database for the weather conditions in past years. The results will help you decide how hot, cold, wet, or windy it might be!

Date:

Astronomy

Mar. 11, 2012 Rise Set
Actual Time 7:23 AM EDT 7:10 PM EDT
Civil Twilight 6:56 AM EDT 7:36 PM EDT
Nautical Twilight 6:25 AM EDT 8:07 PM EDT
Astronomical Twilight 5:54 AM EDT 8:39 PM EDT
Moon 11:29 PM EDT (3/11) 8:59 AM EDT (3/11)
Length of Visible Light 12h 39m
Length of Day
11h 46m
Waning Gibbous, 85% of the Moon is Illuminated
Mar 11
Waning Gibbous
Mar 14
Last Quarter
Mar 22
New
Mar 30
First Quarter
Apr 6
Full

Hourly Weather History & Observations

Time (EDT) Temp. Windchill Dew Point Humidity Pressure Visibility Wind Dir Wind Speed Gust Speed Precip Events Conditions
12:54 AM 30.9 °F - 19.0 °F 61% 30.54 in 10.0 mi Calm Calm - N/A   Partly Cloudy
1:54 AM 30.0 °F - 21.0 °F 69% 30.55 in 10.0 mi Calm Calm - N/A   Partly Cloudy
3:54 AM 32.0 °F - 19.9 °F 61% 30.54 in 10.0 mi Calm Calm - N/A   Clear
4:54 AM 32.0 °F - 19.9 °F 61% 30.53 in 10.0 mi Calm Calm - N/A   Clear
5:54 AM 30.0 °F - 21.0 °F 69% 30.54 in 10.0 mi Calm Calm - N/A   Clear
6:54 AM 28.9 °F - 21.0 °F 72% 30.55 in 10.0 mi Calm Calm - N/A   Clear
7:54 AM 30.2 °F - 23.0 °F 75% 30.55 in 10.0 mi Calm Calm - N/A   Clear
8:54 AM 37.0 °F 34.5 °F 26.1 °F 65% 30.56 in 10.0 mi SSW 3.5 mph - N/A   Clear
9:54 AM 43.0 °F 39.5 °F 26.1 °F 51% 30.56 in 10.0 mi SSW 5.8 mph - N/A   Partly Cloudy
10:54 AM 48.9 °F - 25.0 °F 39% 30.56 in 10.0 mi SW 8.1 mph 17.3 mph N/A   Clear
11:54 AM 51.1 °F - 24.1 °F 35% 30.53 in 10.0 mi SSW 6.9 mph - N/A   Clear
12:54 PM 55.0 °F - 24.1 °F 30% 30.52 in 10.0 mi WSW 12.7 mph 18.4 mph N/A   Clear
1:54 PM 57.9 °F - 25.0 °F 28% 30.47 in 10.0 mi SW 12.7 mph 20.7 mph N/A   Clear
2:54 PM 61.0 °F - 26.1 °F 26% 30.44 in 10.0 mi Variable 5.8 mph - N/A   Clear
3:54 PM 63.0 °F - 27.0 °F 26% 30.42 in 10.0 mi SW 10.4 mph 19.6 mph N/A   Partly Cloudy
4:54 PM 62.6 °F - 26.6 °F 26% 30.40 in 10.0 mi SW 10.4 mph - N/A   Partly Cloudy
5:54 PM 62.1 °F - 26.1 °F 25% 30.39 in 10.0 mi SSW 8.1 mph - N/A   Partly Cloudy
6:54 PM 55.0 °F - 35.1 °F 47% 30.38 in 10.0 mi ESE 9.2 mph - N/A   Scattered Clouds
7:54 PM 51.1 °F - 35.1 °F 54% 30.38 in 10.0 mi SE 3.5 mph - N/A   Scattered Clouds
8:54 PM 50.0 °F - 35.6 °F 58% 30.38 in 10.0 mi SSE 3.5 mph - N/A   Clear
9:54 PM 46.9 °F - 34.0 °F 61% 30.39 in 10.0 mi Calm Calm - N/A   Partly Cloudy
10:54 PM 44.6 °F - 33.8 °F 66% 30.39 in 10.0 mi Calm Calm - N/A   Scattered Clouds
11:54 PM 43.0 °F - 34.0 °F 71% 30.39 in 10.0 mi Calm Calm - N/A   Mostly Cloudy
12:54 AM 41.0 °F - 33.1 °F 73% 30.39 in 10.0 mi Calm Calm - N/A   Scattered Clouds